Location: Newark
(34.5992°S, 58.3747°W)
Time: 08:15:03
(UTC+00:00)

STARLINK 1040 - Pass Details

Date: 09 December 2019
Orbit: 338 x 344 km, 53.0° (Epoch: 19 January)

Event Time Altitude Azimuth Distance (km) Brightness Sun altitude
Rises 23:19:22 0° 243° (WSW) 2,150 9.5 -4.6°
Reaches altitude 10° 23:21:49 10° 264° (W) 1,304 6.8 -5.0°
Maximum altitude 23:23:48 17° 307° (NW) 977 5.2 -5.4°
Drops below altitude 10° 23:25:46 10° 351° (N) 1,296 5.3 -5.7°
Enters shadow 23:28:02 - 11° (N) 2,069 6.1 -6.1°
